SCP
0 0 0 0 0 0 0 0 0 0 0 0 0 0 0 0 0 0 0 0 0 1 2 4 4 4 4 4 4 4 4 5 4 4 4 4 4 4 4 3 2 2 3 3 3 3 2 2 2
0 0 0 0 0 0 0 0 0 0 0 0 0 0 0 0 0 0 0 0 0 1 3 4 5 5 4 4 4 4 4 5 5 4 4 4 3 4 4 3 3 2 3 3 3 3 2 2 2
0 0 0 0 0 0 0 0 0 0 0 0 0 0 0 0 0 0 0 0 0 1 3 4 5 5 4 4 4 4 4 4 5 4 4 3 3 4 4 4 3 3 3 3 3 3 2 2 2
0 0 0 0 0 0 0 0 0 0 0 0 0 0 0 0 0 0 0 0 1 1 3 4 5 5 4 4 4 4 4 4 5 4 4 3 3 3 4 4 4 3 3 3 3 3 3 3 2
0 0 0 0 0 0 0 0 0 0 0 0 0 0 0 0 0 0 0 1 1 2 2 3 4 5 4 4 4 4 4 4 5 4 4 3 3 3 4 4 4 4 4 4 3 3 3 3 3
0 0 0 0 0 0 0 0 0 0 0 0 0 0 0 0 0 0 0 1 1 2 3 3 4 4 4 4 4 4 4 4 4 4 4 3 3 4 4 4 5 5 4 4 4 3 3 3 3
0 0 0 0 0 0 0 0 0 0 0 0 0 0 0 0 0 0 1 1 1 2 3 3 3 4 4 4 4 3 3 4 4 4 4 3 3 4 4 4 5 5 5 4 4 4 3 3 3
0 0 0 0 0 0 0 0 0 0 0 0 0 0 0 0 0 1 1 1 2 2 2 3 3 4 4 4 3 3 3 3 3 4 3 3 3 3 3 4 4 5 4 4 4 3 3 2 2
0 0 0 0 0 0 0 0 0 0 0 0 0 0 0 0 1 1 1 1 2 2 2 3 3 4 4 4 3 3 3 3 3 3 3 3 3 3 3 3 3 4 4 3 3 3 2 2 2
0 0 0 0 0 0 0 0 0 0 0 0 0 0 0 0 1 1 1 2 2 2 2 2 3 4 4 3 3 3 3 3 3 3 3 2 2 3 3 2 2 3 3 3 2 2 2 1 1
0 0 0 0 0 0 0 0 0 0 0 0 0 0 0 0 1 1 1 2 2 2 2 2 2 3 4 3 3 3 3 3 3 3 3 2 2 2 2 2 2 2 2 2 2 2 2 1 1
0 0 0 0 0 0 0 0 0 0 0 0 0 0 0 0 1 1 1 1 2 2 2 2 2 3 3 3 3 3 3 3 3 3 3 2 2 2 2 2 1 1 1 1 1 2 2 1 1
0 0 0 0 0 0 0 0 0 0 0 0 0 0 0 0 0 1 1 2 2 2 2 2 1 2 3 3 3 3 3 3 3 3 3 2 2 2 2 2 1 1 1 1 1 1 1 1 1
0 0 0 0 0 0 0 0 0 0 0 0 0 0 0 0 0 1 1 2 2 2 2 1 1 1 2 3 3 3 3 3 3 3 3 2 2 1 2 2 1 1 1 1 1 1 1 1 1
0 0 0 0 0 0 0 0 0 0 0 0 0 0 0 0 0 1 1 1 2 2 1 1 0 1 2 3 3 4 4 4 4 4 3 2 2 1 1 2 1 1 1 1 1 1 1 1 1
0 0 0 0 0 0 0 0 0 0 0 0 0 0 0 0 0 0 1 1 1 1 1 0 0 0 1 2 3 4 4 5 4 4 3 2 1 1 1 1 1 1 1 1 1 1 1 1 1
0 0 0 0 0 0 0 0 0 0 0 0 0 0 0 0 0 0 1 1 1 1 1 0 0 0 1 1 2 3 4 5 5 4 3 2 1 1 1 1 1 1 1 0 0 0 1 1 1
0 0 0 0 0 0 0 0 0 0 0 0 0 0 0 0 0 0 1 1 1 1 1 1 0 0 0 1 1 2 3 4 4 4 3 2 1 0 0 1 1 1 1 0 0 0 0 1 1
0 0 0 0 0 0 0 0 0 0 0 0 0 0 0 0 0 1 1 1 1 1 1 1 0 0 0 0 1 2 3 3 4 4 3 2 1 0 0 0 0 1 1 0 0 0 0 1 1
0 0 0 0 0 0 0 0 0 0 0 0 0 0 0 0 0 1 1 1 0 0 1 1 0 0 0 0 0 1 2 3 3 3 3 2 1 0 0 0 0 1 1 0 0 0 0 0 0
0 0 0 0 0 0 0 0 0 0 0 0 0 0 0 0 0 1 1 0 0 0 0 0 0 0 0 0 0 1 1 2 2 2 2 2 1 0 0 0 0 1 1 0 0 0 1 0 0
0 0 0 0 0 0 0 0 0 0 0 0 0 0 0 0 0 1 1 0 0 0 0 0 0 0 0 0 0 0 1 1 2 2 2 1 1 0 0 0 0 0 0 0 0 1 1 0 0
0 0 0 0 0 0 0 0 0 0 0 0 0 0 0 0 0 1 1 0 0 0 0 0 0 0 0 0 0 0 0 1 1 2 2 1 0 0 0 0 0 0 0 0 1 1 1 1 0
0 0 0 0 0 0 0 0 0 0 0 0 0 0 0 0 0 0 0 0 0 0 0 0 0 0 0 0 0 0 0 1 1 1 2 1 0 0 0 0 0 0 0 0 1 1 1 1 1
0 0 0 0 0 0 0 0 0 0 0 0 0 0 0 0 0 0 0 0 0 0 0 0 0 0 0 0 0 0 0 1 1 1 1 1 1 0 0 0 0 0 0 0 1 1 1 1 1
0 0 0 0 0 0 0 0 0 0 0 0 0 0 0 0 0 0 0 0 0 0 0 0 0 0 0 0 0 0 0 1 1 1 1 1 1 0 0 0 0 0 0 0 1 1 1 1 1
0 0 0 0 0 0 0 0 0 0 0 0 0 0 0 0 0 0 0 0 0 0 0 0 0 0 0 0 0 0 1 1 1 1 1 1 1 1 0 0 0 0 0 0 1 1 1 1 1
0 0 0 0 0 0 0 0 0 0 0 0 0 0 0 0 0 0 0 0 0 0 0 0 0 0 0 0 0 1 1 1 1 1 1 1 1 1 0 0 0 0 0 0 0 0 0 0 1
0 0 0 0 0 0 0 0 0 0 0 0 0 0 0 0 0 0 0 0 0 1 1 0 0 0 0 0 0 1 1 1 1 1 1 1 1 0 0 0 0 0 0 0 0 0 0 0 0
0 0 0 0 0 0 0 0 0 0 0 0 0 0 0 0 0 0 0 0 1 1 1 0 0 0 0 0 1 1 1 1 1 1 1 0 0 0 0 0 0 0 0 0 0 0 0 0 0
Wind_Speed
7 3 2 4 5 3 4 4 2 1 2 2 3 1 2 1 1 2 2 5 7 5 4 3 2 0 2 3 4 4 5 7 8 9 11 13 14 15 15 16 16 16 15 15 15 15 15 15 15
2 2 4 5 4 2 5 3 2 1 3 5 3 2 2 2 2 2 5 8 7 5 4 4 5 2 1 2 3 4 4 5 7 8 10 11 13 14 15 16 16 16 15 15 15 15 15 15 15
2 4 4 4 3 6 3 1 1 2 3 4 4 3 2 2 3 3 6 8 7 5 4 5 6 4 2 1 2 3 5 5 6 8 9 10 12 13 14 15 15 15 15 15 15 15 15 16 16
3 5 5 2 5 5 2 1 3 3 5 5 3 4 3 1 2 3 7 7 8 7 5 5 7 5 3 2 2 3 4 5 5 6 8 9 10 11 12 13 14 14 15 15 16 16 16 16 16
5 5 3 1 5 3 1 3 2 3 4 4 3 4 4 1 2 5 8 8 7 7 6 4 7 6 5 3 2 3 3 4 4 5 7 8 9 10 11 12 13 15 15 16 17 17 16 16 16
5 4 3 4 4 2 2 4 2 3 4 4 3 3 5 1 5 8 8 8 6 6 6 5 7 6 5 4 3 3 3 4 4 5 6 6 8 9 10 11 13 14 16 16 17 17 17 17 16
5 3 3 3 2 2 1 3 1 2 4 4 2 3 5 4 6 8 8 7 6 5 5 5 5 4 5 5 4 3 3 3 4 4 5 5 6 8 10 11 12 13 15 16 17 17 17 17 17
4 4 1 2 3 4 2 3 1 2 5 4 1 2 5 7 9 8 7 6 6 5 4 5 5 4 3 2 4 4 4 4 4 4 3 4 6 7 9 9 11 12 13 15 17 17 17 17 17
4 4 2 3 3 3 2 4 4 3 4 4 3 4 6 9 8 8 7 7 7 7 5 5 5 5 4 3 3 3 4 4 4 3 3 3 3 4 6 8 9 11 13 14 16 17 17 16 15
4 3 4 2 2 3 4 4 5 5 6 6 7 7 8 8 7 7 7 8 9 9 8 5 5 5 4 3 2 1 2 3 3 3 3 2 2 3 4 7 9 11 11 12 14 15 14 11 7
2 3 2 2 2 3 5 5 4 4 7 7 9 11 10 10 8 7 7 7 8 7 8 7 6 5 4 3 2 1 1 1 2 3 3 2 2 2 3 3 5 6 7 6 8 8 6 6 6
1 2 2 3 3 3 5 5 4 6 11 8 8 8 9 11 10 8 8 8 8 8 9 8 6 5 5 4 2 2 1 1 2 3 4 3 2 2 3 3 4 4 4 4 4 5 6 7 7
1 3 4 6 7 6 6 7 6 9 11 9 9 9 9 10 10 8 6 6 6 7 9 9 7 6 5 4 2 2 2 2 2 3 4 4 3 4 3 4 4 4 4 5 5 6 8 8 8
2 4 6 6 5 3 5 8 5 10 6 6 8 9 9 9 8 7 7 6 6 7 8 8 8 7 5 4 3 3 2 2 2 3 5 6 4 4 4 4 5 5 5 5 5 6 8 7 7
2 4 6 3 3 3 4 9 8 9 5 8 9 9 10 9 7 7 7 6 6 7 8 8 7 6 6 5 4 3 3 3 2 3 5 6 5 5 5 4 5 5 5 6 5 6 6 7 7
3 4 5 5 3 3 2 11 9 5 5 9 10 9 9 8 7 7 7 6 6 7 8 8 7 7 7 5 4 3 3 3 3 3 4 6 6 6 5 5 5 6 5 6 6 6 6 7 7
5 4 5 8 3 2 2 12 12 6 6 10 10 9 8 8 8 7 7 6 6 7 7 8 7 7 7 6 4 4 4 4 4 3 4 6 7 7 6 5 5 6 6 6 7 6 6 7 7
4 4 6 8 5 4 7 15 17 9 6 9 9 8 7 8 9 8 7 6 6 6 6 7 7 7 7 5 4 3 3 4 4 4 5 6 6 8 7 6 7 7 6 6 7 7 6 6 7
4 5 10 10 5 6 10 16 18 11 6 6 6 6 6 8 8 6 6 6 6 6 6 7 7 6 5 4 3 3 4 4 4 5 7 7 7 8 7 6 7 8 7 8 8 7 8 6 6
4 6 9 9 4 6 9 14 12 7 4 4 5 6 7 8 9 8 7 6 6 6 7 7 7 7 7 5 5 5 4 4 5 5 6 7 8 9 7 8 7 8 8 9 9 9 6 5 7
5 6 7 9 9 4 6 9 5 3 3 4 4 5 6 7 8 9 8 7 7 7 7 8 8 8 7 7 5 4 3 3 4 5 5 7 8 9 9 9 8 9 9 9 11 11 9 8 7
7 5 6 7 5 5 4 7 7 4 6 5 6 6 7 8 7 8 9 9 8 9 9 8 8 8 8 7 6 6 6 6 7 5 6 7 8 9 9 10 10 10 9 9 11 11 9 11 9
6 5 5 3 2 3 2 3 10 4 5 6 6 6 7 7 7 8 9 9 9 9 9 8 8 9 9 8 8 7 7 7 5 5 7 8 8 9 9 10 10 11 10 10 11 11 11 10 10
4 4 2 3 3 3 2 2 10 4 5 5 5 7 8 8 8 9 9 9 9 9 8 8 9 10 9 9 9 8 8 8 7 8 8 7 6 7 9 10 11 11 10 11 11 11 13 11 9
5 6 7 8 6 6 2 4 12 7 6 5 7 8 8 8 8 9 10 10 11 11 10 9 10 11 9 9 9 8 9 9 10 10 9 8 7 6 9 9 10 10 11 11 10 11 12 13 12
1 4 4 2 5 8 4 8 11 6 5 5 6 7 8 8 8 9 10 11 11 11 11 10 11 11 10 8 8 7 7 7 7 9 8 9 8 8 8 10 10 11 12 12 10 10 11 11 12
2 1 3 4 2 6 8 9 13 6 5 5 6 7 9 10 10 11 11 11 11 11 11 11 11 11 10 9 7 6 7 7 7 8 8 8 7 7 9 10 10 10 11 12 11 9 12 11 11
3 5 4 3 2 7 8 7 7 7 7 6 7 8 10 10 11 12 11 10 10 10 11 11 11 11 10 9 7 6 6 7 7 8 9 9 9 8 9 10 10 10 10 12 11 10 11 12 11
3 2 3 2 3 3 8 11 7 7 7 7 8 9 10 11 12 12 12 11 10 10 11 10 10 10 10 9 8 6 6 6 7 7 8 8 8 8 9 10 10 10 10 12 11 11 12 13 12
4 5 6 4 4 5 5 14 6 6 6 6 9 10 10 11 11 11 11 11 10 10 10 10 10 10 10 8 8 6 6 6 6 7 7 7 8 9 9 10 10 10 11 11 12 13 13 14 14
Wind_Direction
349 1 62 57 60 57 237 240 230 292 306 305 288 248 173 169 172 177 276 339 334 334 333 331 345 54 153 160 161 165 174 173 171 172 171 169 167 165 163 162 160 158 156 152 149 146 144 141 137
345 26 56 64 105 196 247 233 233 277 300 315 337 9 45 6 9 9 336 326 332 337 341 346 354 351 230 169 167 169 166 175 176 176 176 174 174 172 170 166 164 161 158 154 151 147 145 143 140
21 50 79 84 159 198 204 130 273 283 324 7 357 8 35 337 357 348 318 316 336 345 342 340 353 355 324 230 190 181 176 178 180 179 179 180 180 179 175 171 168 165 160 157 153 150 149 147 144
63 48 55 91 220 224 226 325 326 341 351 12 9 338 333 345 15 312 319 339 347 342 338 335 349 345 343 306 237 206 189 184 186 186 183 185 185 182 179 175 171 167 164 160 156 155 153 150 148
57 73 77 237 245 254 308 322 354 11 346 339 360 323 297 267 347 345 347 351 348 337 334 330 337 336 331 325 287 238 213 202 194 191 196 192 187 184 179 175 175 172 169 165 162 160 156 154 152
59 69 118 227 245 264 316 328 359 359 324 320 339 305 273 281 348 343 345 340 337 331 329 325 328 326 326 319 300 266 232 224 217 207 199 199 195 187 182 177 177 176 174 171 168 164 161 159 157
98 108 183 223 258 273 301 331 10 316 310 297 305 288 280 307 326 331 336 329 327 325 328 327 313 307 314 316 305 281 257 239 228 217 210 201 196 195 190 184 181 177 177 176 173 168 164 163 161
109 104 150 237 244 257 308 329 285 286 277 284 277 263 282 304 320 329 329 330 323 321 320 319 319 305 289 275 297 295 277 253 235 230 223 216 200 197 196 188 185 181 180 180 177 171 169 166 163
80 86 214 231 231 264 312 322 305 290 273 283 257 249 274 302 320 332 332 333 333 326 316 307 310 308 295 284 291 302 276 256 242 217 222 223 204 194 196 193 185 184 183 183 181 174 171 167 163
77 150 221 223 219 273 296 292 297 307 296 284 288 290 301 304 319 325 324 322 323 323 318 307 304 305 296 294 292 265 274 248 230 210 204 204 207 202 197 190 188 185 185 184 183 176 170 162 158
90 188 248 275 262 275 283 280 270 269 276 264 279 297 311 313 313 309 305 302 301 301 308 309 301 296 288 278 271 260 270 261 231 207 199 200 199 199 186 185 183 182 179 181 178 174 170 159 154
60 248 252 275 288 286 272 276 273 232 247 259 271 285 297 307 302 296 296 301 305 307 308 305 300 291 281 265 259 244 238 247 242 217 203 190 191 196 196 188 192 184 176 173 173 173 163 156 158
282 286 284 277 286 271 268 261 263 255 261 280 288 293 293 295 294 283 281 287 301 304 305 304 300 288 278 260 252 258 237 239 239 223 208 198 192 198 201 196 195 190 178 176 172 173 166 160 161
285 286 289 288 289 286 287 279 261 263 274 295 297 292 289 287 288 290 297 298 301 298 298 298 298 292 282 267 246 236 231 232 235 229 212 203 195 197 195 206 195 193 183 181 176 174 171 165 163
315 319 317 299 307 307 316 295 239 254 292 300 296 290 290 286 285 281 284 288 292 296 297 301 299 295 288 272 247 241 231 230 233 240 224 208 199 198 197 202 197 192 184 178 173 168 170 167 165
18 13 329 304 314 301 337 285 268 271 296 294 293 294 292 287 283 279 280 284 289 295 297 297 300 300 290 272 252 237 227 227 228 234 234 223 206 199 198 201 201 189 184 179 174 170 174 173 169
26 349 298 299 288 295 271 271 279 289 289 285 289 294 293 294 295 290 283 280 286 285 288 289 290 291 289 274 255 241 233 229 225 226 234 225 215 203 200 204 204 187 185 185 179 175 174 173 169
308 297 285 280 286 291 270 270 285 294 282 277 284 292 292 295 292 288 283 284 283 280 281 281 288 288 286 274 261 247 239 239 232 225 231 228 220 210 201 202 202 191 185 188 181 174 175 174 166
241 255 274 270 272 286 271 280 290 299 297 285 290 293 294 291 287 291 294 293 289 290 289 285 285 284 281 265 254 241 235 237 241 233 227 226 223 214 204 202 199 196 190 190 182 172 171 174 159
250 272 277 286 288 287 286 284 283 286 277 273 285 295 299 309 319 318 310 303 290 283 285 288 289 283 274 259 248 243 236 238 237 237 233 231 225 216 211 202 202 201 190 188 186 172 168 175 171
273 245 269 288 318 317 316 300 292 300 311 308 304 300 307 306 309 315 314 307 300 292 285 285 285 282 279 272 262 259 253 247 238 237 233 236 226 216 213 209 204 203 192 190 189 179 175 176 182
284 259 270 294 325 311 17 308 296 311 317 315 316 318 312 309 310 315 315 310 306 296 288 281 278 278 273 267 255 246 242 244 244 237 237 237 225 220 217 211 207 206 196 191 194 187 179 175 181
260 295 292 291 245 302 325 257 287 319 308 308 308 311 314 310 310 314 314 308 304 300 294 286 283 280 271 261 249 245 250 250 250 243 240 239 229 219 220 214 209 205 199 193 195 189 184 185 187
295 336 15 53 63 314 251 216 283 264 251 280 295 308 315 315 314 312 312 312 309 305 305 299 291 287 276 263 253 243 245 250 249 245 237 236 231 223 219 218 213 205 200 196 197 193 191 191 189
28 37 9 357 358 272 267 244 255 253 244 250 279 298 308 311 311 313 316 316 313 311 309 307 302 295 284 269 257 246 241 241 242 240 232 233 231 228 220 218 212 208 203 198 196 196 197 194 189
12 106 126 265 278 296 309 253 258 258 268 270 277 289 303 308 310 312 308 307 308 309 310 309 306 300 290 276 263 249 246 243 245 243 237 231 230 228 221 219 211 211 205 199 196 199 200 197 193
114 118 155 151 288 284 278 283 295 274 283 287 294 306 307 309 312 311 309 307 308 308 307 306 304 302 300 294 280 257 249 248 252 258 247 235 230 225 216 220 212 210 206 200 195 203 200 196 195
153 144 98 109 308 292 290 273 261 286 290 302 302 302 303 308 310 311 311 308 307 306 304 305 305 304 305 300 289 274 259 254 252 255 253 236 225 222 215 218 211 207 208 202 196 203 200 196 197
130 135 135 147 183 227 289 276 228 237 265 279 285 292 298 302 304 307 309 307 308 312 310 308 308 310 309 307 298 284 273 268 262 256 254 245 232 222 215 217 209 206 209 202 197 204 197 195 196
182 185 156 173 240 217 254 274 256 245 266 273 288 297 300 299 300 302 305 309 313 315 314 313 312 312 308 307 304 291 278 276 274 272 267 252 238 223 215 213 208 207 209 202 199 202 198 194 194